Wind_Speed
34 33 32 30 28 29 27 29 30 31 35 38 39 39 41 36 34 35 35 28 26 25 24 23 21 20 19 19 19 19 18 17 18 19 20 22 25 28 29 30 32 32 32 32 34 34 36 40 41
35 33 33 32 31 29 29 29 32 33 34 32 33 34 32 32 32 33 32 28 25 25 25 23 22 19 17 16 16 16 16 16 17 16 15 16 18 20 22 25 25 26 27 28 30 34 36 35 40
36 34 34 33 32 30 30 32 34 34 32 32 33 35 37 35 34 32 33 29 27 26 25 23 21 19 18 16 16 15 15 14 14 14 14 16 17 17 18 18 19 20 22 22 26 28 30 34 36
41 40 37 35 36 31 33 32 36 35 34 33 34 34 37 40 36 34 32 28 27 26 26 24 21 19 18 18 18 18 17 17 16 16 15 16 17 18 18 19 19 21 21 22 24 26 28 30 32
41 38 41 38 36 32 33 34 31 36 38 36 31 31 35 39 36 36 36 28 25 25 25 26 24 21 19 18 18 19 20 19 18 19 19 19 19 19 20 21 22 23 24 26 27 29 31 33 35
44 41 37 35 33 30 31 34 33 32 33 33 35 34 38 40 41 38 37 34 26 25 25 26 24 24 22 20 19 19 19 20 21 21 21 21 22 23 23 24 25 25 26 28 30 32 34 36 37
42 40 37 35 29 29 36 35 35 32 32 35 34 37 40 39 42 39 40 38 32 28 28 27 26 24 23 23 23 22 21 21 21 22 23 23 24 25 26 26 27 28 29 30 32 33 35 37 38
47 45 41 37 36 38 38 36 37 38 35 34 38 39 40 40 42 42 42 42 37 32 30 29 28 27 27 26 25 25 25 25 25 25 25 26 26 27 27 29 30 31 32 33 34 36 37 38 39
49 49 46 45 46 42 44 39 44 44 41 37 46 39 39 40 42 45 46 42 42 37 32 31 31 32 30 29 27 28 28 27 28 28 28 28 28 28 29 30 32 33 34 35 36 38 39 41 43
54 52 55 50 49 46 46 40 45 45 42 43 43 41 39 44 45 45 46 42 43 40 38 35 34 35 34 32 30 30 31 30 30 30 30 31 31 30 30 32 33 34 35 35 36 39 39 40 42
60 56 55 58 50 45 48 48 47 47 45 41 44 48 45 48 45 46 47 47 46 43 43 39 36 36 36 35 33 34 33 32 32 32 32 31 32 32 32 32 32 33 33 33 35 37 38 38 40
63 59 55 50 49 54 51 52 51 50 49 47 51 47 47 47 49 44 48 50 48 48 47 45 39 37 36 36 36 35 34 33 33 32 31 31 31 30 31 31 31 32 32 33 34 34 35 36 37
65 63 64 64 57 57 54 55 51 53 51 53 49 50 48 51 43 46 51 53 52 53 49 48 41 40 38 39 39 38 36 34 34 32 31 29 28 30 30 30 30 31 31 31 33 35 36 38 37
68 68 64 69 66 64 56 59 59 55 56 53 51 47 47 50 49 46 54 54 54 52 50 51 43 41 42 41 41 41 38 36 33 34 33 30 30 28 28 30 31 31 32 33 34 35 37 40 40
78 68 73 68 63 60 61 56 64 51 58 58 54 51 48 48 50 50 52 54 54 52 52 53 47 44 44 43 40 41 42 37 37 34 34 33 32 32 31 31 31 33 35 37 37 38 38 39 40
77 69 72 68 68 66 66 71 73 62 59 56 53 52 51 54 57 57 54 52 56 56 55 54 51 48 46 44 42 42 42 42 38 36 33 33 34 33 33 32 34 36 36 37 38 38 39 38 38
77 79 77 76 72 72 72 78 74 64 63 61 58 59 63 60 58 57 52 58 57 54 54 54 54 50 48 47 46 44 43 41 41 40 35 33 33 33 35 35 37 38 41 42 41 41 41 40 39
85 86 80 79 80 75 70 63 66 64 63 60 60 63 61 60 62 54 58 59 57 56 57 54 52 51 50 49 48 47 44 42 42 39 36 33 34 35 36 38 40 41 42 42 43 46 45 47 46
89 94 89 85 84 81 74 68 72 68 68 67 65 68 65 67 64 60 61 60 56 55 57 56 53 52 52 53 51 50 45 43 40 39 37 37 37 38 38 39 41 43 44 45 45 46 48 49 50
88 88 87 85 88 84 79 74 72 71 68 67 68 72 69 65 68 65 61 60 58 57 59 57 53 52 54 54 54 53 48 44 38 38 39 41 43 42 42 44 44 45 46 47 50 52 53 54 54
82 83 85 88 89 86 85 71 72 75 71 69 67 65 64 68 71 68 60 58 60 60 61 57 54 54 56 57 56 55 51 45 44 46 47 47 46 46 45 46 46 46 49 51 52 54 56 58 60
83 84 85 85 84 84 86 79 74 74 71 72 73 70 67 67 70 68 62 60 62 61 59 57 56 56 59 59 59 57 51 50 52 51 52 52 51 51 53 51 48 49 50 54 57 57 60 62 63
81 82 85 87 88 87 80 73 70 72 71 72 72 72 66 69 68 64 65 63 61 63 62 62 62 61 61 60 59 57 52 54 54 54 55 56 57 56 54 54 55 58 57 58 60 62 65 67 68
86 80 84 83 83 81 78 79 66 74 77 78 79 79 78 76 69 68 67 66 64 64 64 64 64 63 64 62 61 58 56 57 58 60 61 62 63 65 59 58 60 59 62 66 64 65 69 71 72
83 88 88 86 86 82 84 84 66 72 75 75 76 75 75 74 73 71 70 69 68 66 66 67 66 65 66 65 63 61 61 63 63 65 67 68 68 68 66 65 65 66 68 68 69 72 72 73 72
86 91 91 88 85 82 83 77 65 66 67 71 75 77 76 75 73 73 73 73 71 70 69 68 67 67 67 67 68 69 71 69 68 69 70 71 71 71 71 72 71 73 74 73 75 77 76 75 77
82 84 87 93 91 90 86 75 74 72 72 74 75 75 77 77 76 75 75 74 73 73 72 72 71 71 71 70 73 73 73 73 72 72 74 75 75 74 74 74 74 74 75 77 79 80 81 83 81
80 83 86 86 85 86 80 77 73 75 76 78 80 80 80 80 79 77 77 77 78 77 75 75 74 74 75 76 76 76 78 78 78 77 78 77 77 78 76 75 76 78 81 81 83 85 86 84 81
89 80 78 83 88 87 81 78 75 77 77 80 82 81 82 81 81 82 81 80 80 79 78 77 77 78 79 80 82 83 84 84 84 83 83 84 83 81 81 81 80 81 83 86 87 85 87 83 84
91 87 94 94 86 89 93 88 81 82 80 81 84 85 83 84 84 81 81 82 81 82 82 82 83 85 84 86 88 88 87 87 88 87 87 89 87 88 90 89 89 90 91 90 88 87 86 88 91
Wind_Direction
248 251 254 260 260 256 261 266 272 276 285 291 301 302 305 303 307 318 312 314 312 309 307 304 297 294 286 281 279 274 273 272 270 270 263 261 259 257 255 256 256 256 254 255 253 248 249 249 250
241 243 255 250 259 254 260 266 273 283 291 295 302 304 303 312 318 325 327 321 315 313 311 310 305 298 293 287 286 285 280 276 274 275 275 267 266 266 265 264 262 259 254 255 254 253 252 254 254
244 247 246 248 247 255 261 268 279 284 288 289 299 298 301 318 326 329 331 324 319 317 312 308 305 305 304 302 299 294 290 286 285 285 283 285 281 278 273 273 273 270 266 264 260 259 259 261 262
252 253 253 253 251 260 266 271 279 281 291 288 303 301 304 309 328 332 336 327 322 317 313 310 310 311 310 308 308 308 307 305 302 296 291 287 286 285 284 283 280 276 274 273 273 271 271 273 273
252 253 254 254 256 259 265 269 282 283 288 295 301 304 309 311 325 335 335 329 327 319 314 313 311 308 305 307 309 307 306 304 304 303 300 297 294 290 288 286 285 285 283 279 277 276 276 275 275
252 249 248 251 251 260 263 272 281 294 297 285 297 298 308 311 325 335 335 334 326 323 319 312 309 309 308 307 304 302 302 303 303 302 300 298 296 294 291 288 287 284 282 281 280 280 279 277 277
244 245 246 248 254 267 272 276 279 287 293 298 293 299 306 316 321 328 334 338 331 327 322 316 308 303 303 304 302 299 297 298 298 297 296 296 294 292 292 290 288 286 284 283 281 280 279 280 280
246 244 243 245 254 270 270 273 277 279 290 294 299 296 302 316 318 323 331 333 335 329 323 316 311 305 301 299 298 296 298 297 296 296 296 293 291 290 290 289 288 287 286 285 285 285 285 284 283
250 245 242 251 252 265 270 273 275 278 289 290 300 294 302 311 317 317 323 327 335 334 326 318 313 309 301 300 298 296 295 293 293 294 293 292 289 288 288 288 288 288 288 288 287 286 286 286 285
247 249 246 249 253 266 269 266 273 279 284 288 294 294 304 312 311 313 321 321 328 333 334 322 315 310 305 301 297 295 294 293 293 293 293 294 294 292 290 289 289 289 289 288 286 286 286 285 285
245 252 257 252 252 261 261 265 269 275 283 284 287 292 299 306 302 305 313 319 320 328 334 327 316 313 305 302 300 297 296 296 296 296 295 296 296 295 294 294 295 295 294 293 293 292 292 291 291
244 247 254 255 251 251 260 260 263 274 283 283 283 290 301 299 305 301 311 311 313 321 329 328 319 313 307 306 302 301 300 300 299 300 300 300 298 298 299 298 299 300 301 301 300 298 298 297 297
247 242 250 257 253 256 258 262 269 272 276 279 282 290 294 297 297 298 308 308 310 317 323 328 317 313 309 308 305 303 303 303 304 303 304 302 301 302 301 299 299 303 303 304 305 306 306 303 303
246 243 251 253 252 258 253 256 264 268 275 273 281 287 287 292 291 296 303 305 308 314 320 325 316 311 308 308 305 304 306 306 307 307 308 305 301 301 303 304 304 305 307 307 308 308 309 307 305
241 248 251 247 254 252 260 255 257 266 265 276 280 280 281 292 286 296 299 300 304 309 315 322 314 308 307 307 302 302 303 304 304 304 306 307 306 304 305 305 304 306 309 309 310 311 311 308 306
243 242 245 251 253 250 255 261 261 266 261 269 278 273 278 288 288 291 292 294 297 302 309 314 315 308 304 304 302 302 301 302 302 302 302 303 305 305 307 307 307 307 308 307 309 311 311 309 308
241 246 250 249 249 253 250 257 263 264 259 267 274 274 281 282 281 287 288 292 295 299 304 308 311 306 303 301 300 301 300 301 301 301 301 301 302 305 305 306 306 307 308 309 310 310 311 309 310
240 239 244 243 249 255 255 258 258 258 263 263 273 277 276 281 278 280 286 287 291 294 299 303 304 303 298 297 297 298 297 298 298 296 298 299 301 302 305 305 305 306 308 308 310 312 314 313 310
238 238 242 247 252 251 252 257 258 263 261 262 268 276 273 277 274 279 284 283 285 288 295 298 299 299 294 293 294 295 295 295 297 294 296 297 300 300 300 302 302 304 305 305 309 311 312 311 311
238 239 242 245 248 248 250 254 258 259 258 262 268 270 268 270 275 279 282 279 281 287 290 292 292 291 289 290 291 291 293 292 296 295 294 294 294 294 295 297 299 300 302 304 306 308 309 308 310
236 238 240 244 247 249 252 252 255 259 257 259 265 260 262 271 279 278 273 273 278 282 289 287 286 286 287 287 288 288 289 286 289 292 293 294 292 293 292 291 294 297 299 301 303 306 307 310 310
239 240 241 245 248 249 252 252 254 254 254 259 258 260 265 272 271 268 270 273 280 282 283 280 281 281 283 284 285 285 283 286 288 291 293 294 294 295 295 293 294 296 298 299 301 305 308 309 307
231 236 240 244 245 248 248 247 248 251 253 255 258 266 264 269 266 266 272 275 276 278 277 278 278 278 279 280 281 282 280 284 288 288 289 292 293 291 291 290 294 296 299 300 302 303 306 306 308
236 236 238 241 242 242 245 246 239 250 255 258 262 264 262 265 262 267 270 272 272 274 273 275 277 279 280 280 280 279 278 282 284 285 286 287 289 291 289 288 292 294 296 301 300 301 301 303 305
239 243 241 239 241 242 243 245 239 249 256 259 262 261 261 262 264 268 269 268 269 270 270 271 273 276 278 278 278 279 279 281 282 283 283 284 287 290 291 293 294 295 296 298 298 299 301 302 299
242 240 239 240 241 242 242 246 244 239 250 259 263 265 266 265 265 265 265 267 268 270 270 271 273 275 276 277 278 279 280 281 280 280 281 283 285 289 291 292 292 293 294 294 296 299 299 299 299
245 245 246 246 244 244 245 245 253 255 253 254 257 261 264 265 265 265 267 267 268 270 270 269 272 273 274 275 278 280 281 281 280 281 281 283 285 287 288 289 291 292 294 296 298 298 297 299 298
244 246 247 251 250 250 248 250 253 254 255 254 252 256 259 261 264 267 268 269 270 271 272 274 275 277 277 279 280 280 280 282 281 282 283 285 287 288 288 289 289 291 292 293 295 293 294 296 296
242 239 245 249 251 252 249 246 245 249 252 253 253 252 256 261 265 264 264 266 267 269 273 275 277 278 279 279 281 282 282 284 285 284 285 285 287 288 288 289 290 290 292 293 293 292 293 292 293
240 242 241 244 248 249 248 243 247 245 247 250 252 254 254 255 259 264 267 268 270 272 273 275 276 278 279 280 281 283 283 284 285 285 284 287 289 289 290 289 289 290 290 291 291 291 291 291 290
Height
10847 10849 10851 10853 10855 10856 10857 10857 10858 10859 10860 10857 10855 10853 10851 10848 10845 10843 10837 10834 10832 10831 10830 10829 10828 10827 10827 10826 10825 10825 10824 10824 10825 10825 10825 10824 10823 10823 10823 10823 10822 10824 10825 10826 10828 10829 10830 10831 10831
10842 10845 10848 10850 10851 10852 10853 10853 10854 10855 10856 10854 10852 10850 10848 10845 10842 10839 10834 10831 10829 10828 10828 10826 10825 10824 10824 10823 10822 10822 10821 10821 10820 10821 10821 10820 10820 10819 10819 10818 10819 10820 10820 10821 10823 10823 10824 10825 10825
10838 10841 10844 10845 10847 10848 10849 10850 10850 10850 10851 10851 10849 10846 10844 10843 10840 10836 10832 10829 10827 10825 10825 10824 10823 10822 10821 10820 10820 10819 10818 10818 10817 10817 10816 10815 10815 10815 10815 10815 10815 10815 10815 10816 10817 10817 10816 10817 10816
10833 10836 10839 10841 10843 10845 10846 10846 10847 10847 10847 10846 10846 10843 10841 10839 10837 10833 10830 10828 10826 10824 10823 10822 10821 10820 10819 10818 10817 10816 10815 10815 10814 10814 10814 10813 10812 10811 10811 10811 10811 10810 10810 10811 10811 10811 10811 10810 10810
10828 10832 10834 10836 10839 10840 10842 10843 10843 10843 10842 10842 10841 10840 10839 10835 10834 10831 10829 10826 10825 10823 10822 10820 10819 10818 10817 10817 10816 10814 10813 10812 10811 10811 10810 10809 10808 10807 10807 10806 10806 10805 10804 10804 10804 10804 10804 10803 10802
10822 10826 10830 10831 10834 10836 10837 10838 10838 10839 10837 10837 10838 10837 10836 10833 10830 10829 10827 10824 10822 10821 10820 10819 10818 10816 10815 10814 10813 10812 10811 10810 10808 10808 10807 10806 10804 10803 10802 10802 10801 10801 10800 10799 10797 10796 10796 10795 10794
10816 10821 10825 10826 10828 10830 10832 10833 10833 10835 10834 10832 10832 10832 10832 10830 10828 10827 10825 10823 10820 10817 10817 10816 10816 10815 10813 10811 10809 10808 10808 10806 10805 10804 10803 10802 10800 10799 10798 10797 10796 10795 10794 10793 10791 10790 10789 10788 10786
10809 10815 10819 10819 10822 10824 10826 10828 10828 10829 10830 10829 10828 10827 10828 10828 10825 10824 10823 10821 10819 10815 10814 10813 10813 10812 10811 10809 10807 10805 10803 10802 10801 10800 10799 10798 10797 10796 10795 10793 10792 10790 10789 10787 10785 10783 10782 10780 10779
10803 10808 10810 10812 10814 10818 10822 10822 10822 10825 10827 10824 10824 10823 10824 10824 10823 10822 10820 10819 10817 10814 10811 10809 10809 10808 10807 10806 10804 10802 10800 10799 10797 10796 10795 10794 10792 10791 10789 10787 10785 10784 10782 10781 10779 10777 10775 10773 10770
10797 10797 10801 10804 10808 10810 10816 10818 10817 10818 10822 10822 10819 10817 10820 10820 10820 10818 10818 10816 10814 10812 10809 10807 10805 10804 10804 10802 10800 10798 10795 10794 10793 10792 10790 10787 10786 10784 10783 10781 10779 10777 10775 10774 10772 10770 10768 10765 10762
10787 10788 10792 10796 10801 10805 10809 10812 10813 10813 10815 10816 10815 10812 10814 10815 10814 10813 10812 10812 10810 10809 10806 10803 10802 10800 10799 10797 10795 10792 10791 10789 10787 10786 10784 10782 10779 10777 10776 10774 10772 10771 10769 10767 10764 10761 10759 10757 10755
10777 10780 10784 10788 10793 10797 10802 10806 10808 10810 10810 10811 10812 10810 10808 10809 10809 10808 10807 10806 10805 10805 10803 10800 10798 10796 10795 10793 10790 10788 10786 10784 10782 10780 10778 10776 10773 10772 10770 10768 10766 10764 10762 10759 10756 10754 10751 10749 10747
10766 10771 10777 10780 10785 10790 10795 10797 10797 10802 10803 10804 10804 10805 10804 10803 10803 10802 10801 10799 10798 10798 10797 10796 10793 10791 10789 10787 10784 10782 10780 10778 10776 10774 10772 10770 10768 10765 10763 10762 10760 10758 10756 10753 10750 10748 10744 10741 10739
10756 10762 10768 10771 10776 10782 10787 10791 10788 10794 10797 10794 10797 10800 10799 10798 10796 10796 10794 10793 10791 10792 10792 10790 10789 10786 10784 10782 10778 10776 10774 10772 10770 10767 10765 10764 10762 10761 10759 10756 10753 10752 10750 10747 10744 10741 10738 10734 10732
10745 10751 10760 10764 10767 10773 10776 10780 10777 10792 10788 10786 10790 10791 10792 10792 10788 10790 10788 10787 10786 10785 10786 10784 10783 10781 10779 10776 10774 10771 10768 10767 10764 10762 10759 10757 10755 10753 10751 10750 10748 10746 10743 10740 10738 10735 10732 10728 10725
10734 10740 10748 10753 10756 10762 10766 10767 10768 10779 10782 10781 10781 10782 10782 10784 10781 10782 10782 10781 10779 10779 10779 10778 10776 10775 10772 10771 10768 10766 10763 10760 10759 10756 10754 10752 10749 10747 10744 10743 10740 10738 10737 10734 10731 10727 10724 10722 10718
10724 10732 10735 10737 10742 10749 10754 10756 10762 10766 10773 10774 10774 10773 10773 10774 10772 10775 10774 10772 10772 10772 10772 10771 10769 10768 10765 10762 10761 10759 10757 10754 10751 10750 10749 10746 10744 10741 10739 10736 10733 10731 10728 10725 10722 10720 10717 10714 10712
10709 10711 10712 10717 10727 10740 10749 10749 10749 10757 10763 10766 10764 10763 10762 10763 10760 10767 10766 10764 10764 10763 10763 10763 10762 10761 10758 10756 10754 10752 10751 10747 10744 10743 10742 10741 10738 10736 10733 10729 10726 10724 10721 10718 10715 10712 10709 10704 10701
10687 10696 10702 10709 10718 10727 10734 10739 10739 10746 10753 10753 10755 10754 10751 10750 10749 10754 10757 10758 10756 10752 10753 10754 10753 10753 10750 10748 10747 10745 10744 10740 10738 10736 10734 10733 10731 10728 10726 10723 10720 10717 10714 10710 10707 10704 10702 10697 10694
10680 10686 10692 10695 10701 10709 10719 10730 10731 10737 10741 10742 10744 10743 10739 10738 10737 10745 10749 10747 10744 10743 10743 10743 10744 10744 10742 10740 10739 10737 10737 10732 10730 10729 10727 10724 10722 10719 10718 10716 10713 10710 10707 10703 10699 10696 10694 10689 10686
10667 10673 10675 10678 10685 10698 10708 10722 10723 10724 10732 10728 10729 10728 10728 10728 10730 10731 10737 10736 10733 10733 10735 10735 10734 10733 10731 10729 10730 10728 10727 10725 10723 10721 10717 10715 10712 10711 10709 10707 10704 10701 10698 10695 10690 10687 10684 10680 10675
10655 10657 10659 10666 10674 10685 10693 10711 10711 10711 10717 10717 10713 10715 10718 10721 10720 10717 10722 10725 10723 10723 10724 10725 10723 10722 10721 10720 10719 10718 10718 10715 10713 10711 10707 10704 10701 10698 10695 10694 10693 10691 10689 10685 10680 10675 10671 10667 10663
10638 10638 10644 10650 10658 10668 10682 10692 10700 10698 10700 10699 10703 10708 10708 10707 10709 10707 10708 10712 10712 10712 10711 10711 10710 10710 10709 10710 10709 10707 10708 10706 10702 10700 10697 10693 10689 10687 10684 10681 10678 10674 10673 10671 10668 10664 10660 10654 10650
10626 10627 10634 10639 10645 10659 10666 10671 10695 10679 10681 10687 10695 10695 10694 10693 10695 10696 10696 10697 10699 10699 10699 10698 10697 10696 10697 10698 10698 10696 10696 10694 10691 10688 10685 10683 10680 10675 10673 10670 10668 10664 10661 10656 10652 10649 10646 10640 10636
10612 10613 10615 10621 10630 10647 10645 10650 10687 10676 10675 10673 10674 10678 10679 10679 10680 10680 10681 10682 10683 10684 10686 10686 10686 10685 10685 10685 10685 10684 10682 10680 10679 10675 10672 10668 10665 10663 10660 10658 10654 10651 10648 10646 10641 10637 10633 10628 10620
10585 10589 10594 10603 10611 10626 10631 10652 10669 10669 10667 10664 10660 10656 10657 10662 10664 10665 10665 10666 10668 10670 10670 10671 10672 10672 10671 10671 10670 10668 10665 10663 10662 10660 10657 10655 10653 10651 10647 10645 10641 10637 10634 10631 10627 10622 10617 10613 10607
10570 10580 10589 10584 10596 10607 10621 10644 10650 10651 10656 10652 10646 10641 10638 10640 10642 10646 10648 10650 10652 10653 10654 10655 10657 10658 10657 10656 10653 10651 10649 10646 10644 10643 10641 10640 10638 10636 10633 10630 10626 10621 10617 10613 10609 10605 10598 10596 10590
10555 10567 10566 10570 10584 10592 10612 10621 10634 10632 10630 10633 10635 10627 10624 10624 10626 10628 10631 10634 10634 10634 10635 10637 10640 10641 10640 10638 10636 10634 10631 10629 10627 10626 10624 10621 10620 10617 10615 10612 10608 10604 10600 10597 10594 10588 10582 10578 10573
10540 10547 10550 10555 10560 10573 10587 10600 10609 10609 10610 10610 10612 10616 10614 10612 10611 10612 10614 10616 10618 10619 10620 10622 10623 10622 10620 10618 10615 10613 10611 10610 10608 10606 10604 10602 10601 10598 10595 10592 10589 10585 10582 10578 10574 10569 10564 10559 10555
10523 10532 10534 10535 10550 10550 10557 10584 10590 10591 10590 10591 10592 10594 10597 10598 10599 10600 10600 10602 10603 10604 10605 10607 10606 10605 10602 10600 10597 10595 10594 10592 10589 10586 10583 10582 10580 10578 10576 10573 10570 10566 10562 10558 10553 10548 10544 10539 10534